Preview of NWS' New Version of Forecast
This preview is not operational and should not be used for support decisions.

Regional Weather Roundup (RWR)

Issued by San Diego, CA (SGX)

                            
000
ASUS46 KSGX 241611
RWRSGX

SAN DIEGO HOURLY WEATHER ROUNDUP
NATIONAL WEATHER SERVICE SAN DIEGO CA
900 AM PDT WED APR 24 2019

NOTE: "FAIR" INDICATES FEW OR NO CLOUDS BELOW 12,000 FEET WITH NO 
SIGNIFICANT WEATHER AND/OR OBSTRUCTIONS TO VISIBILITY.

CAZ042-043-060-061-PZZ750-775-241700-

GREATER SAN DIEGO AREA
  
CITY           SKY/WX    TMP DP  RH WIND       PRES   REMARKS
SAN DIEGO AP   CLOUDY    59  56  89 S7        30.05R FOG              
NATIONAL CITY    N/A     61  58  90 W3        30.04R                  
CHULA VISTA      N/A     61  58  88 CALM      29.95R                  
IMPERIAL BEACH FOG       59  55  87 S8        30.05R VSB 1            
BROWN FIELD    SUNNY     63  57  81 CALM      30.03S HAZE             
MIRAMAR MCAS   CLOUDY    64  56  75 SW5       30.03R FOG              
MONTGOMERY FLD CLOUDY    60  56  86 VRB3      30.03R FOG              
GILLESPIE FLD  SUNNY     61  55  82 CALM      30.03S                  

$$

NORTH SAN DIEGO COUNTY
  
CITY           SKY/WX    TMP DP  RH WIND       PRES   REMARKS
CAMP PENDLETON CLOUDY    57  57 100 CALM      30.03R FOG              
OCEANSIDE AP   CLOUDY    61  57  87 CALM      30.02S FOG              
OCEANSIDE HBR    N/A     59  58  96 W3        30.05R                  
VISTA            N/A     58  53  83 CALM      30.00R                  
CARLSBAD       CLOUDY    59  56  89 CALM      30.02R FOG              
DEL MAR          N/A     59  58  97 SW2       30.04R                  
LA JOLLA SCRIP   N/A     59  57  94 CALM      30.03R                  
FALLBROOK      FOG       55  54  94 CALM      30.03S VSB 1/2          
ESCONDIDO        N/A     65  57  73 S2        30.02R                  
SAN MARCOS       N/A     59  56  89 CALM      30.05S                  
POWAY            N/A     62  58  86 CALM      30.04S                  

$$

EAST SAN DIEGO COUNTY
  
CITY           SKY/WX    TMP DP  RH WIND       PRES   REMARKS
RAMONA         SUNNY     70  47  43 CALM      30.02S                  
SANTEE LAKES     N/A     59  57  92 CALM      29.98                   
LA MESA          N/A     59  58  95 CALM      29.97R                  
JAMUL            N/A     62  59  90 CALM      30.02R                  
MT. LAGUNA OBS   N/A     68  38  33 W9        29.94S                  
CAMPO            N/A     66  42  41 S3        30.02S                  

$$

ORANGE COUNTY AND THE LOS ANGELES BASIN
  
CITY           SKY/WX    TMP DP  RH WIND       PRES   REMARKS
JOHN WAYNE AP  CLOUDY    60  54  80 CALM      30.02S                  
LAGUNA BEACH     N/A     62  58  86 CALM      30.00S                  
LAKE FOREST FR   N/A     58  52  80 CALM      29.89F                  
HUNTINGTON BCH   N/A     62  58  87 S6        30.02S                  
LOS ALAMITOS   CLOUDY    62  58  89 S7        30.02S FOG              
FULLERTON      CLOUDY    61  55  81 S5        30.01S HAZE             
LONG BEACH     CLOUDY    63  56  78 SE5       30.02R                  
L.A. AP        MOSUNNY   62  56  80 S7        30.02R HAZE             
L.A. DOWNTOWN  CLOUDY    63  57  81 S5        30.01R HAZE             

$$

THE INLAND EMPIRE
  
CITY           SKY/WX    TMP DP  RH WIND       PRES   REMARKS
CORONA         SUNNY     64  55  72 CALM      30.01                   
CHINO          SUNNY     64  56  75 CALM      30.02S                  
ONTARIO        MOSUNNY   70  54  56 VRB3      30.01S                  
SAN BERNARDINO SUNNY     70  41  35 CALM      30.02R                  
RIVERSIDE AP   SUNNY     67  52  58 CALM      30.01S                  
MORENO VALLEY    N/A     70  53  53 CALM      28.13S                  
MARCH ARB      SUNNY     68  48  49 CALM      30.02S                  
PERRIS           N/A     67  53  61 CALM      30.00S                  
HEMET EAST       N/A     72  41  32 CALM      29.92S                  
FRENCH VALLEY  FAIR      66  46  48 CALM      30.03S                  
TEMECULA         N/A     60  53  77 W1        30.02S                  

$$

SAN BERNARDINO AND RIVERSIDE COUNTY MOUNTAINS
  
CITY           SKY/WX    TMP DP  RH WIND       PRES   REMARKS
BIG BEAR AP    SUNNY     55  27  33 CALM      30.24S                  
ANGELUS OAKS     N/A     61  33  36 CALM      29.93S                  

$$

SOUTHERN DESERT INCLUDING THE COACHELLA VALLEY
  
CITY           SKY/WX    TMP DP  RH WIND       PRES   REMARKS
PALM SPRINGS   SUNNY     85  40  20 SW3       29.91S                  
THOUSAND PALMS   N/A     86  41  20 NW9       29.86S                  
PALM DESERT      N/A     83  46  27 CALM      29.79S                  
THERMAL        SUNNY     90  39  16 N13       29.85S                  
BORREGO AP     FAIR      82  36  18 CALM      29.90S                  
BLYTHE         SUNNY     78  37  22 SE5       29.91S                  
IMPERIAL AP    SUNNY     82  47  29 W3        29.88R                  
YUMA AZ        SUNNY     78  48  34 CALM      29.91R                  
MEXICALI       SUNNY     73  55  53 SE6       29.91R                  

$$

UPPER DESERT
  
CITY           SKY/WX    TMP DP  RH WIND       PRES   REMARKS
VICTORVILLE AP SUNNY    N/A N/A N/A SE8       30.06S                  
HESPERIA         N/A     72  37  27 SW2       29.98F                  
APPLE VALLEY     N/A     70  41  35 W2        30.01F                  
PALMDALE       SUNNY     75  32  20 CALM      30.04S                  
LANCASTER      SUNNY     69  33  26 SE3       30.03F                  
EDWARDS AFB    MOSUNNY   64  33  31 CALM      30.02R                  
DAGGETT        SUNNY     74  36  25 W13       30.01S                  
29 PALMS N     SUNNY     77  31  18 NW6       30.06S                  
NEEDLES        SUNNY     79  36  21 CALM      29.94S                  

$$

REGIONAL REPORTS
  
CITY           SKY/WX    TMP DP  RH WIND       PRES   REMARKS
SANTA BARBARA  PTSUNNY   60  57  89 SE10      30.00R                  
SANDBERG       SUNNY     73  22  14 CALM      30.14S                  
LAS VEGAS NV   SUNNY     76  36  23 E3        30.00S                  
PHOENIX AZ     SUNNY     73  47  39 SE6       29.96R                  
TIJUANA        SUNNY     61  59  94 CALM      30.05S FOG              

$$

OFFSHORE ISLANDS
  
CITY           SKY/WX    TMP DP  RH WIND       PRES   REMARKS
CATALINA ARPT  SUNNY     67  52  58 CALM      30.03R                  
SAN CLEMENTE I CLOUDY    61  54  77 S7        30.03S                  
SAN NICOLAS IS FOG       57  56  96 S5        30.00R VSB 1            

$$

MARINE AND OFFSHORE BUOY REPORTS
  
STATION/POSITION SKY/WX   TEMP    WIND        PRES    VSBY  SWELL
                          AIR SEA DIR/SP/G                  HT/PER/DIR
                          (F)     (DEG/KT/KT) (MB)    (MI)  (FT/S/D)
TANNER BANKS               57 58              1016.2R
S CLEMENTE BASIN           58 63  250/  6/  8 1016.7R         3/280/ 9
SAN NICOLAS IS.               56                N/A           2/180/11
SO. S. ROSA ISLA           55 57   60/  6/  8 1015.7R         3/290/ 8
W. S. BARBARA CH                              1015.6R         3/290/ 8
M. S. BARBARA CH           56 56  100/ 10/ 14 1016.5R         2/250/ 7
S. MONICA BASIN            59 59  120/  8/ 12 1016.3R         2/160/14
S PEDRO CHANNEL               60                N/A           2/170/12
CMP PENDLETON NS              63                N/A           2/210/13
OCEANSIDE OFFSHR              64                N/A           2/210/14
TORREY PINES OTR              64                N/A           2/210/11
SAN DIEGO BAY                 65              1016.8R
IMPERIAL BEACH                60                N/A
POINT LOMA SOUTH              63                N/A           2/190/13

$$